Time,TemperatureF,DewpointF,PressureIn,WindDirection,WindDirectionDegrees,WindSpeedMPH,WindSpeedGustMPH,Humidity,HourlyPrecipIn,Conditions,Clouds,dailyrainin,SoftwareType,DateUTC
2013-12-28 00:04:00,46.6,22.4,29.23,SE,132,0.0,0.0,38,0.00,,---,0.00,VWS V14.00,2013-12-28 08:04:00,
2013-12-28 00:15:00,46.2,22.0,29.23,SE,132,0.0,0.0,38,0.00,,---,0.00,VWS V14.00,2013-12-28 08:15:00,
2013-12-28 00:21:00,46.2,22.0,29.23,SE,132,0.0,0.0,38,0.00,,---,0.00,VWS V14.00,2013-12-28 08:21:00,
2013-12-28 00:26:00,46.2,22.0,29.23,SE,132,0.0,0.0,38,0.00,,---,0.00,VWS V14.00,2013-12-28 08:26:00,
2013-12-28 00:32:00,46.0,21.9,29.23,SE,132,0.0,0.0,38,0.00,,---,0.00,VWS V14.00,2013-12-28 08:32:00,
2013-12-28 00:37:00,45.7,21.5,29.23,SE,132,0.0,0.0,38,0.00,,---,0.00,VWS V14.00,2013-12-28 08:37:00,
2013-12-28 00:43:00,45.5,21.4,29.23,SE,132,0.0,0.0,38,0.00,,---,0.00,VWS V14.00,2013-12-28 08:43:00,
2013-12-28 00:49:00,45.3,21.2,29.23,SE,132,0.0,0.0,38,0.00,,---,0.00,VWS V14.00,2013-12-28 08:49:00,
2013-12-28 00:54:00,45.1,21.1,29.23,SE,132,0.0,0.0,38,0.00,,---,0.00,VWS V14.00,2013-12-28 08:54:00,
2013-12-28 01:00:00,45.0,20.9,29.23,SE,132,0.0,0.0,38,0.00,,---,0.00,VWS V14.00,2013-12-28 09:00:00,
2013-12-28 01:06:00,44.8,20.7,29.23,SE,132,0.0,0.0,38,0.00,,---,0.00,VWS V14.00,2013-12-28 09:06:00,
2013-12-28 01:11:00,44.8,20.7,29.23,SE,132,0.0,0.0,38,0.00,,---,0.00,VWS V14.00,2013-12-28 09:11:00,
2013-12-28 01:17:00,44.8,20.7,29.23,SE,132,0.0,0.0,38,0.00,,---,0.00,VWS V14.00,2013-12-28 09:17:00,
2013-12-28 01:22:00,45.0,21.5,29.23,SE,132,0.0,0.0,39,0.00,,---,0.00,VWS V14.00,2013-12-28 09:22:00,
2013-12-28 01:27:00,45.1,21.1,29.23,SE,132,0.0,0.0,38,0.00,,---,0.00,VWS V14.00,2013-12-28 09:27:00,
2013-12-28 01:32:00,45.1,21.1,29.21,SE,132,0.0,0.0,38,0.00,,---,0.00,VWS V14.00,2013-12-28 09:32:00,
2013-12-28 01:38:00,45.1,21.1,29.21,SE,132,0.0,0.0,38,0.00,,---,0.00,VWS V14.00,2013-12-28 09:38:00,
2013-12-28 01:43:00,45.1,21.1,29.21,SE,132,0.0,0.0,38,0.00,,---,0.00,VWS V14.00,2013-12-28 09:43:00,
2013-12-28 01:48:00,45.3,21.2,29.23,SE,132,0.0,0.0,38,0.00,,---,0.00,VWS V14.00,2013-12-28 09:48:00,
2013-12-28 01:53:00,45.3,21.2,29.23,SE,132,0.0,0.0,38,0.00,,---,0.00,VWS V14.00,2013-12-28 09:53:00,
2013-12-28 01:59:00,45.3,21.2,29.23,SE,132,0.0,0.0,38,0.00,,---,0.00,VWS V14.00,2013-12-28 09:59:00,
2013-12-28 02:04:00,45.3,21.2,29.23,SE,132,0.0,0.0,38,0.00,,---,0.00,VWS V14.00,2013-12-28 10:04:00,
2013-12-28 02:10:00,45.5,21.4,29.23,SE,132,0.0,0.0,38,0.00,,---,0.00,VWS V14.00,2013-12-28 10:10:00,
2013-12-28 02:16:00,45.7,21.5,29.23,SE,132,0.0,0.0,38,0.00,,---,0.00,VWS V14.00,2013-12-28 10:16:00,
2013-12-28 02:21:00,45.5,21.4,29.23,SE,132,0.0,0.0,38,0.00,,---,0.00,VWS V14.00,2013-12-28 10:21:00,
2013-12-28 02:26:00,45.5,21.4,29.23,SE,132,0.0,0.0,38,0.00,,---,0.00,VWS V14.00,2013-12-28 10:26:00,
2013-12-28 02:32:00,45.3,21.8,29.23,SE,132,0.0,0.0,39,0.00,,---,0.00,VWS V14.00,2013-12-28 10:32:00,
2013-12-28 02:37:00,45.5,22.0,29.23,SE,132,0.0,0.0,39,0.00,,---,0.00,VWS V14.00,2013-12-28 10:37:00,
2013-12-28 02:42:00,45.5,22.0,29.23,SE,132,0.0,0.0,39,0.00,,---,0.00,VWS V14.00,2013-12-28 10:42:00,
2013-12-28 02:47:00,45.5,22.0,29.23,SE,132,0.0,0.0,39,0.00,,---,0.00,VWS V14.00,2013-12-28 10:47:00,
2013-12-28 02:53:00,45.3,21.8,29.23,SE,132,0.0,0.0,39,0.00,,---,0.00,VWS V14.00,2013-12-28 10:53:00,
2013-12-28 02:58:00,45.5,22.0,29.23,SE,132,0.0,0.0,39,0.00,,---,0.00,VWS V14.00,2013-12-28 10:58:00,
2013-12-28 03:04:00,45.7,22.2,29.23,SE,132,0.0,0.0,39,0.00,,---,0.00,VWS V14.00,2013-12-28 11:04:00,
2013-12-28 03:08:00,45.7,22.2,29.23,SE,132,0.0,0.0,39,0.00,,---,0.00,VWS V14.00,2013-12-28 11:08:00,
2013-12-28 03:13:00,45.7,22.2,29.23,SE,132,0.0,0.0,39,0.00,,---,0.00,VWS V14.00,2013-12-28 11:13:00,
2013-12-28 03:19:00,45.7,22.2,29.23,SE,132,0.0,0.0,39,0.00,,---,0.00,VWS V14.00,2013-12-28 11:19:00,
2013-12-28 03:25:00,45.5,22.0,29.23,SE,132,0.0,0.0,39,0.00,,---,0.00,VWS V14.00,2013-12-28 11:25:00,
2013-12-28 03:30:00,45.5,22.0,29.23,SE,132,0.0,0.0,39,0.00,,---,0.00,VWS V14.00,2013-12-28 11:30:00,
2013-12-28 03:36:00,45.1,21.7,29.23,SE,132,0.0,0.0,39,0.00,,---,0.00,VWS V14.00,2013-12-28 11:36:00,
2013-12-28 03:41:00,45.1,21.7,29.23,SE,132,0.0,0.0,39,0.00,,---,0.00,VWS V14.00,2013-12-28 11:41:00,
2013-12-28 03:47:00,45.0,21.5,29.23,SE,132,0.0,0.0,39,0.00,,---,0.00,VWS V14.00,2013-12-28 11:47:00,
2013-12-28 03:53:00,44.6,21.2,29.23,SE,132,0.0,0.0,39,0.00,,---,0.00,VWS V14.00,2013-12-28 11:53:00,
2013-12-28 03:58:00,44.4,21.6,29.23,SE,132,0.0,0.0,40,0.00,,---,0.00,VWS V14.00,2013-12-28 11:58:00,
2013-12-28 04:04:00,44.2,21.5,29.23,SE,132,0.0,0.0,40,0.00,,---,0.00,VWS V14.00,2013-12-28 12:04:00,
2013-12-28 04:09:00,44.2,21.5,29.23,SE,132,0.0,0.0,40,0.00,,---,0.00,VWS V14.00,2013-12-28 12:09:00,
2013-12-28 04:14:00,44.4,21.6,29.23,SE,132,0.0,0.0,40,0.00,,---,0.00,VWS V14.00,2013-12-28 12:14:00,
2013-12-28 04:19:00,44.4,21.6,29.23,SE,132,0.0,0.0,40,0.00,,---,0.00,VWS V14.00,2013-12-28 12:19:00,
2013-12-28 04:24:00,44.4,21.6,29.23,SE,132,0.0,0.0,40,0.00,,---,0.00,VWS V14.00,2013-12-28 12:24:00,
2013-12-28 04:30:00,44.2,21.5,29.23,SE,132,0.0,0.0,40,0.00,,---,0.00,VWS V14.00,2013-12-28 12:30:00,
2013-12-28 04:36:00,44.2,21.5,29.23,SE,132,0.0,0.0,40,0.00,,---,0.00,VWS V14.00,2013-12-28 12:36:00,
2013-12-28 04:42:00,44.1,21.3,29.23,SE,132,0.0,0.0,40,0.00,,---,0.00,VWS V14.00,2013-12-28 12:42:00,
2013-12-28 04:47:00,44.1,21.3,29.23,SE,132,0.0,0.0,40,0.00,,---,0.00,VWS V14.00,2013-12-28 12:47:00,
2013-12-28 04:52:00,44.1,21.3,29.23,SE,132,0.0,0.0,40,0.00,,---,0.00,VWS V14.00,2013-12-28 12:52:00,
2013-12-28 04:57:00,44.1,21.3,29.23,SE,132,0.0,0.0,40,0.00,,---,0.00,VWS V14.00,2013-12-28 12:57:00,
2013-12-28 05:03:00,44.2,21.5,29.23,SE,132,0.0,0.0,40,0.00,,---,0.00,VWS V14.00,2013-12-28 13:03:00,
2013-12-28 05:09:00,44.2,21.5,29.23,SE,132,0.0,0.0,40,0.00,,---,0.00,VWS V14.00,2013-12-28 13:09:00,
2013-12-28 05:15:00,44.2,21.5,29.23,SE,132,0.0,0.0,40,0.00,,---,0.00,VWS V14.00,2013-12-28 13:15:00,
2013-12-28 05:21:00,44.2,21.5,29.23,SE,131,0.0,0.0,40,0.00,,---,0.00,VWS V14.00,2013-12-28 13:21:00,
2013-12-28 05:27:00,44.2,21.5,29.23,SE,133,0.0,0.0,40,0.00,,---,0.00,VWS V14.00,2013-12-28 13:27:00,
2013-12-28 05:32:00,44.1,21.3,29.23,SE,133,0.0,0.0,40,0.00,,---,0.00,VWS V14.00,2013-12-28 13:32:00,
2013-12-28 05:38:00,43.9,21.1,29.23,SE,133,0.0,0.0,40,0.00,,---,0.00,VWS V14.00,2013-12-28 13:38:00,
2013-12-28 05:44:00,43.7,21.0,29.23,SE,133,0.0,0.0,40,0.00,,---,0.00,VWS V14.00,2013-12-28 13:44:00,
2013-12-28 05:49:00,43.5,20.8,29.23,SE,133,0.0,0.0,40,0.00,,---,0.00,VWS V14.00,2013-12-28 13:49:00,
2013-12-28 05:55:00,43.5,20.8,29.23,SE,133,0.0,0.0,40,0.00,,---,0.00,VWS V14.00,2013-12-28 13:55:00,
2013-12-28 06:00:00,43.7,21.0,29.23,SE,133,0.0,0.0,40,0.00,,---,0.00,VWS V14.00,2013-12-28 14:00:00,
2013-12-28 06:06:00,43.7,21.0,29.23,SE,133,0.0,0.0,40,0.00,,---,0.00,VWS V14.00,2013-12-28 14:06:00,
2013-12-28 06:11:00,43.7,21.0,29.23,SE,133,0.0,0.0,40,0.00,,---,0.00,VWS V14.00,2013-12-28 14:11:00,
2013-12-28 06:17:00,43.5,20.8,29.23,SE,133,0.0,0.0,40,0.00,,---,0.00,VWS V14.00,2013-12-28 14:17:00,
2013-12-28 06:23:00,43.5,20.8,29.23,SE,133,0.0,0.0,40,0.00,,---,0.00,VWS V14.00,2013-12-28 14:23:00,
2013-12-28 06:28:00,43.5,20.8,29.23,SE,133,0.0,0.0,40,0.00,,---,0.00,VWS V14.00,2013-12-28 14:28:00,
2013-12-28 06:34:00,43.5,20.8,29.23,SE,132,0.0,0.0,40,0.00,,---,0.00,VWS V14.00,2013-12-28 14:34:00,
2013-12-28 06:40:00,43.5,20.8,29.23,SE,132,0.0,0.0,40,0.00,,---,0.00,VWS V14.00,2013-12-28 14:40:00,
2013-12-28 06:45:00,43.5,20.8,29.23,SE,130,0.0,0.0,40,0.00,,---,0.00,VWS V14.00,2013-12-28 14:45:00,
2013-12-28 06:51:00,43.7,21.0,29.23,SE,127,0.0,0.0,40,0.00,,---,0.00,VWS V14.00,2013-12-28 14:51:00,
2013-12-28 06:56:00,43.9,20.5,29.23,SE,130,0.0,0.0,39,0.00,,---,0.00,VWS V14.00,2013-12-28 14:56:00,
2013-12-28 07:02:00,43.9,20.5,29.23,SE,133,0.0,0.0,39,0.00,,---,0.00,VWS V14.00,2013-12-28 15:02:00,
2013-12-28 07:07:00,44.1,20.7,29.23,SE,129,0.0,0.0,39,0.00,,---,0.00,VWS V14.00,2013-12-28 15:07:00,
2013-12-28 07:13:00,44.1,20.7,29.23,SE,130,0.0,0.0,39,0.00,,---,0.00,VWS V14.00,2013-12-28 15:13:00,
2013-12-28 07:19:00,43.9,20.5,29.23,SE,128,0.0,0.0,39,0.00,,---,0.00,VWS V14.00,2013-12-28 15:19:00,
2013-12-28 07:24:00,43.9,20.5,29.23,SE,129,0.0,0.0,39,0.00,,---,0.00,VWS V14.00,2013-12-28 15:24:00,
2013-12-28 07:30:00,43.7,20.4,29.23,SE,129,0.0,0.0,39,0.00,,---,0.00,VWS V14.00,2013-12-28 15:30:00,
2013-12-28 07:35:00,43.5,20.2,29.23,SE,129,0.0,0.0,39,0.00,,---,0.00,VWS V14.00,2013-12-28 15:35:00,
2013-12-28 07:41:00,43.3,20.1,29.23,SE,130,0.0,0.0,39,0.00,,---,0.00,VWS V14.00,2013-12-28 15:41:00,
2013-12-28 07:47:00,43.5,20.2,29.23,SE,130,0.0,0.0,39,0.00,,---,0.00,VWS V14.00,2013-12-28 15:47:00,
2013-12-28 07:52:00,43.7,20.4,29.23,SE,130,0.0,0.0,39,0.00,,---,0.00,VWS V14.00,2013-12-28 15:52:00,
2013-12-28 07:58:00,44.1,20.1,29.23,SE,130,0.0,0.0,38,0.00,,---,0.00,VWS V14.00,2013-12-28 15:58:00,
2013-12-28 08:04:00,44.2,20.3,29.23,SE,130,0.0,0.0,38,0.00,,---,0.00,VWS V14.00,2013-12-28 16:04:00,
2013-12-28 08:09:00,44.8,20.7,29.23,SE,129,0.0,0.0,38,0.00,,---,0.00,VWS V14.00,2013-12-28 16:09:00,
2013-12-28 08:15:00,45.1,20.4,29.23,SE,128,0.0,0.0,37,0.00,,---,0.00,VWS V14.00,2013-12-28 16:15:00,
2013-12-28 08:20:00,45.5,20.8,29.23,SE,130,0.0,0.0,37,0.00,,---,0.00,VWS V14.00,2013-12-28 16:20:00,
2013-12-28 08:25:00,45.9,21.1,29.23,SE,134,0.0,0.0,37,0.00,,---,0.00,VWS V14.00,2013-12-28 16:25:00,
2013-12-28 08:30:00,46.4,20.2,29.23,SE,130,0.0,0.0,35,0.00,,---,0.00,VWS V14.00,2013-12-28 16:30:00,
2013-12-28 08:36:00,46.8,19.9,29.23,SE,130,0.0,0.0,34,0.00,,---,0.00,VWS V14.00,2013-12-28 16:36:00,
2013-12-28 08:41:00,47.1,19.5,29.23,SE,127,0.0,0.0,33,0.00,,---,0.00,VWS V14.00,2013-12-28 16:41:00,
2013-12-28 08:47:00,47.5,19.1,29.26,SE,129,0.0,0.0,32,0.00,,---,0.00,VWS V14.00,2013-12-28 16:47:00,
2013-12-28 08:53:00,48.0,18.8,29.26,SE,129,0.0,0.0,31,0.00,,---,0.00,VWS V14.00,2013-12-28 16:53:00,
2013-12-28 08:58:00,48.4,18.4,29.26,SE,131,0.0,0.0,30,0.00,,---,0.00,VWS V14.00,2013-12-28 16:58:00,
2013-12-28 09:04:00,48.6,18.5,29.26,SE,124,0.0,0.0,30,0.00,,---,0.00,VWS V14.00,2013-12-28 17:04:00,
2013-12-28 09:09:00,48.7,19.5,29.26,SE,126,0.0,0.0,31,0.00,,---,0.00,VWS V14.00,2013-12-28 17:09:00,
2013-12-28 09:15:00,48.9,19.6,29.26,SE,131,0.0,0.0,31,0.00,,---,0.00,VWS V14.00,2013-12-28 17:15:00,
2013-12-28 09:21:00,49.3,19.9,29.26,SE,133,0.0,0.0,31,0.00,,---,0.00,VWS V14.00,2013-12-28 17:21:00,
2013-12-28 09:26:00,49.6,19.5,29.26,SE,132,0.0,0.0,30,0.00,,---,0.00,VWS V14.00,2013-12-28 17:26:00,
2013-12-28 09:31:00,50.0,19.8,29.26,SE,133,0.0,0.0,30,0.00,,---,0.00,VWS V14.00,2013-12-28 17:31:00,
2013-12-28 10:31:00,55.4,21.1,29.23,SE,131,0.0,0.0,26,0.00,,---,0.00,VWS V14.00,2013-12-28 18:31:00,
2013-12-28 10:37:00,55.9,20.6,29.23,SE,133,0.0,0.0,25,0.00,,---,0.00,VWS V14.00,2013-12-28 18:37:00,
2013-12-28 10:42:00,56.3,21.0,29.23,SE,133,0.0,0.0,25,0.00,,---,0.00,VWS V14.00,2013-12-28 18:42:00,
2013-12-28 10:47:00,56.8,21.4,29.23,SE,135,0.0,0.0,25,0.00,,---,0.00,VWS V14.00,2013-12-28 18:47:00,
2013-12-28 10:53:00,57.2,20.8,29.23,SE,135,0.0,0.0,24,0.00,,---,0.00,VWS V14.00,2013-12-28 18:53:00,
2013-12-28 10:59:00,57.6,21.1,29.23,SE,134,0.0,0.0,24,0.00,,---,0.00,VWS V14.00,2013-12-28 18:59:00,
2013-12-28 11:04:00,57.9,19.3,29.23,SE,135,0.0,0.0,22,0.00,,---,0.00,VWS V14.00,2013-12-28 19:04:00,
2013-12-28 11:10:00,58.5,19.8,29.23,SE,134,0.0,0.0,22,0.00,,---,0.00,VWS V14.00,2013-12-28 19:10:00,
2013-12-28 11:16:00,58.8,20.1,29.23,SE,131,0.0,0.0,22,0.00,,---,0.00,VWS V14.00,2013-12-28 19:16:00,
2013-12-28 11:21:00,59.2,17.0,29.23,SE,128,0.0,0.0,19,0.00,,---,0.00,VWS V14.00,2013-12-28 19:21:00,
2013-12-28 11:26:00,59.5,14.7,29.23,ESE,123,0.0,0.0,17,0.00,,---,0.00,VWS V14.00,2013-12-28 19:26:00,
2013-12-28 11:32:00,59.9,15.0,29.23,SE,127,0.0,0.0,17,0.00,,---,0.00,VWS V14.00,2013-12-28 19:32:00,
2013-12-28 11:38:00,60.4,11.0,29.23,SE,139,0.0,0.0,14,0.00,,---,0.00,VWS V14.00,2013-12-28 19:38:00,
2013-12-28 11:43:00,60.6,11.2,29.23,SE,131,0.0,0.0,14,0.00,,---,0.00,VWS V14.00,2013-12-28 19:43:00,
2013-12-28 11:49:00,60.8,11.3,29.21,SE,135,0.0,0.0,14,0.00,,---,0.00,VWS V14.00,2013-12-28 19:49:00,
2013-12-28 11:54:00,61.0,6.1,29.21,SE,135,0.0,0.0,11,0.00,,---,0.00,VWS V14.00,2013-12-28 19:54:00,
2013-12-28 11:59:00,61.0,6.1,29.21,SE,135,0.0,0.0,11,0.00,,---,0.00,VWS V14.00,2013-12-28 19:59:00,
2013-12-28 12:04:00,61.0,6.1,29.21,SE,134,0.0,0.0,11,0.00,,---,0.00,VWS V14.00,2013-12-28 20:04:00,
2013-12-28 12:10:00,61.0,6.1,29.21,SE,127,0.0,0.0,11,0.00,,---,0.00,VWS V14.00,2013-12-28 20:10:00,
2013-12-28 12:15:00,61.2,6.3,29.21,SE,134,0.0,0.0,11,0.00,,---,0.00,VWS V14.00,2013-12-28 20:15:00,
2013-12-28 12:20:00,61.3,6.4,29.21,SE,128,0.0,0.0,11,0.00,,---,0.00,VWS V14.00,2013-12-28 20:20:00,
2013-12-28 13:21:00,62.2,-5.8,29.18,SE,133,0.0,0.0,6,0.00,,---,0.00,VWS V14.00,2013-12-28 21:21:00,
2013-12-28 13:27:00,62.2,-5.8,29.18,NNE,29,0.0,0.0,6,0.00,,---,0.00,VWS V14.00,2013-12-28 21:27:00,
2013-12-28 13:32:00,62.2,-5.8,29.18,NW,316,0.0,0.0,6,0.00,,---,0.00,VWS V14.00,2013-12-28 21:32:00,
2013-12-28 13:37:00,62.4,-5.7,29.18,NNW,342,0.0,0.0,6,0.00,,---,0.00,VWS V14.00,2013-12-28 21:37:00,
2013-12-28 13:43:00,62.4,-5.7,29.18,WNW,290,0.0,0.0,6,0.00,,---,0.00,VWS V14.00,2013-12-28 21:43:00,
2013-12-28 13:53:00,62.6,-5.6,29.18,WNW,296,0.0,0.0,6,0.00,,---,0.00,VWS V14.00,2013-12-28 21:53:00,
2013-12-28 13:58:00,62.6,-9.3,29.18,WNW,293,0.0,0.0,5,0.00,,---,0.00,VWS V14.00,2013-12-28 21:58:00,
2013-12-28 14:03:00,62.6,-9.3,29.18,West,278,0.0,0.0,5,0.00,,---,0.00,VWS V14.00,2013-12-28 22:03:00,
2013-12-28 14:09:00,62.6,-9.3,29.18,WNW,293,0.0,0.0,5,0.00,,---,0.00,VWS V14.00,2013-12-28 22:09:00,
2013-12-28 14:14:00,62.6,-9.3,29.18,West,263,0.0,0.0,5,0.00,,---,0.00,VWS V14.00,2013-12-28 22:14:00,
2013-12-28 14:19:00,62.6,-9.3,29.18,West,267,0.0,0.0,5,0.00,,---,0.00,VWS V14.00,2013-12-28 22:19:00,
2013-12-28 14:24:00,62.6,-9.3,29.18,WNW,293,0.0,0.0,5,0.00,,---,0.00,VWS V14.00,2013-12-28 22:24:00,
2013-12-28 14:29:00,62.6,-9.3,29.18,West,268,0.0,0.0,5,0.00,,---,0.00,VWS V14.00,2013-12-28 22:29:00,
2013-12-28 14:34:00,62.6,-9.3,29.18,West,272,0.0,0.0,5,0.00,,---,0.00,VWS V14.00,2013-12-28 22:34:00,
2013-12-28 14:39:00,62.6,-9.3,29.18,West,276,0.0,0.0,5,0.00,,---,0.00,VWS V14.00,2013-12-28 22:39:00,
2013-12-28 14:44:00,62.8,-9.2,29.18,WNW,286,0.0,0.0,5,0.00,,---,0.00,VWS V14.00,2013-12-28 22:44:00,
2013-12-28 14:49:00,63.0,-9.0,29.18,WNW,297,0.0,0.0,5,0.00,,---,0.00,VWS V14.00,2013-12-28 22:49:00,
2013-12-28 14:54:00,63.0,-9.0,29.18,WNW,287,0.0,0.0,5,0.00,,---,0.00,VWS V14.00,2013-12-28 22:54:00,
2013-12-28 14:59:00,63.0,-9.0,29.18,WNW,286,0.0,0.0,5,0.00,,---,0.00,VWS V14.00,2013-12-28 22:59:00,
2013-12-28 15:04:00,63.1,-8.9,29.18,West,271,0.0,0.0,5,0.00,,---,0.00,VWS V14.00,2013-12-28 23:04:00,
2013-12-28 15:09:00,63.1,-8.9,29.18,West,280,0.0,0.0,5,0.00,,---,0.00,VWS V14.00,2013-12-28 23:09:00,
2013-12-28 15:14:00,63.0,-9.0,29.18,WNW,287,0.0,0.0,5,0.00,,---,0.00,VWS V14.00,2013-12-28 23:14:00,
2013-12-28 15:19:00,63.0,-9.0,29.18,West,277,0.0,0.0,5,0.00,,---,0.00,VWS V14.00,2013-12-28 23:19:00,
2013-12-28 15:24:00,62.8,-9.2,29.18,West,279,0.0,0.0,5,0.00,,---,0.00,VWS V14.00,2013-12-28 23:24:00,
2013-12-28 15:29:00,62.6,-9.3,29.18,WNW,285,0.0,0.0,5,0.00,,---,0.00,VWS V14.00,2013-12-28 23:29:00,
2013-12-28 15:34:00,62.4,-9.4,29.18,WNW,282,0.0,0.0,5,0.00,,---,0.00,VWS V14.00,2013-12-28 23:34:00,
2013-12-28 15:39:00,62.2,-9.6,29.18,West,280,0.0,0.0,5,0.00,,---,0.00,VWS V14.00,2013-12-28 23:39:00,
2013-12-28 15:44:00,62.2,-9.6,29.18,West,281,0.0,0.0,5,0.00,,---,0.00,VWS V14.00,2013-12-28 23:44:00,
2013-12-28 15:49:00,62.1,-9.7,29.18,West,281,0.0,0.0,5,0.00,,---,0.00,VWS V14.00,2013-12-28 23:49:00,
2013-12-28 15:54:00,61.9,-9.8,29.18,West,266,0.0,0.0,5,0.00,,---,0.00,VWS V14.00,2013-12-28 23:54:00,
2013-12-28 15:59:00,61.7,-6.2,29.18,West,266,0.0,0.0,6,0.00,,---,0.00,VWS V14.00,2013-12-28 23:59:00,
2013-12-28 16:24:00,60.3,-4.1,29.15,West,266,0.0,0.0,7,0.00,,---,0.00,VWS V14.00,2013-12-29 00:24:00,
2013-12-28 16:29:00,59.7,-4.5,29.15,West,266,0.0,0.0,7,0.00,,---,0.00,VWS V14.00,2013-12-29 00:29:00,
2013-12-28 16:34:00,59.5,-4.6,29.15,West,266,0.0,0.0,7,0.00,,---,0.00,VWS V14.00,2013-12-29 00:34:00,
2013-12-28 16:39:00,59.2,-4.9,29.15,West,266,0.0,0.0,7,0.00,,---,0.00,VWS V14.00,2013-12-29 00:39:00,
2013-12-28 16:44:00,58.8,-5.2,29.15,West,266,0.0,0.0,7,0.00,,---,0.00,VWS V14.00,2013-12-29 00:44:00,
2013-12-28 16:50:00,58.1,-5.7,29.15,West,266,0.0,0.0,7,0.00,,---,0.00,VWS V14.00,2013-12-29 00:50:00,
2013-12-28 16:55:00,57.9,-5.8,29.15,West,266,0.0,0.0,7,0.00,,---,0.00,VWS V14.00,2013-12-29 00:55:00,
2013-12-28 17:00:00,57.7,-5.9,29.15,West,266,0.0,0.0,7,0.00,,---,0.00,VWS V14.00,2013-12-29 01:00:00,
2013-12-28 17:06:00,57.4,-1.0,29.15,West,266,0.0,0.0,9,0.00,,---,0.00,VWS V14.00,2013-12-29 01:06:00,
2013-12-28 17:12:00,56.8,0.9,29.15,West,266,0.0,0.0,10,0.00,,---,0.00,VWS V14.00,2013-12-29 01:12:00,
2013-12-28 17:17:00,56.7,0.7,29.15,West,266,0.0,0.0,10,0.00,,---,0.00,VWS V14.00,2013-12-29 01:17:00,
2013-12-28 17:22:00,56.1,0.3,29.15,West,266,0.0,0.0,10,0.00,,---,0.00,VWS V14.00,2013-12-29 01:22:00,
2013-12-28 17:27:00,55.8,0.0,29.15,West,266,0.0,0.0,10,0.00,,---,0.00,VWS V14.00,2013-12-29 01:27:00,
2013-12-28 17:33:00,55.4,-0.3,29.15,West,266,0.0,0.0,10,0.00,,---,0.00,VWS V14.00,2013-12-29 01:33:00,
2013-12-28 17:38:00,55.2,-0.4,29.15,West,266,0.0,0.0,10,0.00,,---,0.00,VWS V14.00,2013-12-29 01:38:00,
2013-12-28 17:57:00,55.0,5.1,29.15,West,262,0.0,0.0,13,0.00,,---,0.00,VWS V14.00,2013-12-29 01:57:00,
2013-12-28 18:02:00,54.7,4.8,29.18,West,262,0.0,0.0,13,0.00,,---,0.00,VWS V14.00,2013-12-29 02:02:00,
2013-12-28 18:08:00,54.0,4.2,29.18,West,262,0.0,0.0,13,0.00,,---,0.00,VWS V14.00,2013-12-29 02:08:00,
2013-12-28 18:14:00,53.4,3.8,29.18,West,262,0.0,0.0,13,0.00,,---,0.00,VWS V14.00,2013-12-29 02:14:00,
2013-12-28 18:19:00,53.1,3.5,29.18,West,262,0.0,0.0,13,0.00,,---,0.00,VWS V14.00,2013-12-29 02:19:00,
2013-12-28 18:24:00,52.7,3.2,29.18,West,262,0.0,0.0,13,0.00,,---,0.00,VWS V14.00,2013-12-29 02:24:00,
2013-12-28 18:30:00,52.5,3.1,29.18,West,262,0.0,0.0,13,0.00,,---,0.00,VWS V14.00,2013-12-29 02:30:00,
2013-12-28 18:35:00,52.0,2.7,29.18,West,262,0.0,0.0,13,0.00,,---,0.00,VWS V14.00,2013-12-29 02:35:00,
2013-12-28 18:41:00,51.8,2.5,29.18,West,262,0.0,0.0,13,0.00,,---,0.00,VWS V14.00,2013-12-29 02:41:00,
2013-12-28 18:47:00,51.4,3.8,29.18,West,262,0.0,0.0,14,0.00,,---,0.00,VWS V14.00,2013-12-29 02:47:00,
2013-12-28 18:52:00,51.3,3.7,29.18,West,262,0.0,0.0,14,0.00,,---,0.00,VWS V14.00,2013-12-29 02:52:00,
2013-12-28 18:58:00,51.1,3.6,29.18,West,262,0.0,0.0,14,0.00,,---,0.00,VWS V14.00,2013-12-29 02:58:00,
2013-12-28 19:03:00,51.1,6.5,29.18,West,262,0.0,0.0,16,0.00,,---,0.00,VWS V14.00,2013-12-29 03:03:00,
2013-12-28 19:09:00,50.9,6.3,29.18,West,262,0.0,0.0,16,0.00,,---,0.00,VWS V14.00,2013-12-29 03:09:00,
2013-12-28 19:15:00,50.9,10.1,29.18,West,262,0.0,0.0,19,0.00,,---,0.00,VWS V14.00,2013-12-29 03:15:00,
2013-12-28 19:20:00,50.7,10.0,29.18,West,262,0.0,0.0,19,0.00,,---,0.00,VWS V14.00,2013-12-29 03:20:00,
2013-12-28 19:26:00,50.7,10.0,29.18,West,262,0.0,0.0,19,0.00,,---,0.00,VWS V14.00,2013-12-29 03:26:00,
2013-12-28 19:31:00,50.5,12.1,29.18,West,262,0.0,0.0,21,0.00,,---,0.00,VWS V14.00,2013-12-29 03:31:00,
2013-12-28 19:37:00,50.4,11.9,29.18,West,262,0.0,0.0,21,0.00,,---,0.00,VWS V14.00,2013-12-29 03:37:00,
2013-12-28 19:42:00,50.2,11.8,29.18,West,262,0.0,0.0,21,0.00,,---,0.00,VWS V14.00,2013-12-29 03:42:00,
2013-12-28 19:47:00,50.2,11.8,29.18,West,262,0.0,0.0,21,0.00,,---,0.00,VWS V14.00,2013-12-29 03:47:00,
2013-12-28 19:52:00,50.0,14.6,29.18,West,262,0.0,0.0,24,0.00,,---,0.00,VWS V14.00,2013-12-29 03:52:00,
2013-12-28 19:58:00,49.8,14.5,29.18,West,262,0.0,0.0,24,0.00,,---,0.00,VWS V14.00,2013-12-29 03:58:00,
2013-12-28 20:04:00,49.6,14.3,29.21,West,262,0.0,0.0,24,0.00,,---,0.00,VWS V14.00,2013-12-29 04:04:00,
2013-12-28 20:09:00,49.6,14.3,29.21,West,262,0.0,0.0,24,0.00,,---,0.00,VWS V14.00,2013-12-29 04:09:00,
2013-12-28 20:15:00,49.5,16.0,29.18,West,262,0.0,0.0,26,0.00,,---,0.00,VWS V14.00,2013-12-29 04:15:00,
2013-12-28 20:21:00,49.3,15.9,29.18,West,262,0.0,0.0,26,0.00,,---,0.00,VWS V14.00,2013-12-29 04:21:00,
2013-12-28 20:26:00,49.3,15.9,29.18,West,262,0.0,0.0,26,0.00,,---,0.00,VWS V14.00,2013-12-29 04:26:00,
2013-12-28 20:32:00,49.3,15.9,29.21,West,262,0.0,0.0,26,0.00,,---,0.00,VWS V14.00,2013-12-29 04:32:00,
2013-12-28 20:37:00,49.3,15.9,29.21,West,261,0.0,0.0,26,0.00,,---,0.00,VWS V14.00,2013-12-29 04:37:00,
2013-12-28 20:43:00,49.1,13.9,29.21,West,262,0.0,0.0,24,0.00,,---,0.00,VWS V14.00,2013-12-29 04:43:00,
2013-12-28 20:49:00,49.1,15.7,29.21,West,262,0.0,0.0,26,0.00,,---,0.00,VWS V14.00,2013-12-29 04:49:00,
2013-12-28 20:54:00,48.9,15.6,29.21,West,262,0.0,0.0,26,0.00,,---,0.00,VWS V14.00,2013-12-29 04:54:00,
2013-12-28 21:00:00,48.7,15.4,29.21,West,262,0.0,0.0,26,0.00,,---,0.00,VWS V14.00,2013-12-29 05:00:00,
2013-12-28 21:01:00,48.7,13.6,29.21,West,262,0.0,0.0,24,0.00,,---,0.00,VWS V14.00,2013-12-29 05:01:00,
2013-12-28 21:02:00,48.6,13.4,29.21,West,262,0.0,0.0,24,0.00,,---,0.00,VWS V14.00,2013-12-29 05:02:00,
2013-12-28 21:03:00,48.6,15.2,29.21,West,262,0.0,0.0,26,0.00,,---,0.00,VWS V14.00,2013-12-29 05:03:00,
2013-12-28 21:04:00,48.6,15.2,29.21,West,262,0.0,0.0,26,0.00,,---,0.00,VWS V14.00,2013-12-29 05:04:00,
2013-12-28 21:05:00,48.6,15.2,29.21,West,262,0.0,0.0,26,0.00,,---,0.00,VWS V14.00,2013-12-29 05:05:00,
2013-12-28 21:09:00,48.7,13.6,29.21,West,262,0.0,0.0,24,0.00,,---,0.00,VWS V14.00,2013-12-29 05:09:00,
2013-12-28 21:14:00,48.7,15.4,29.21,West,262,0.0,0.0,26,0.00,,---,0.00,VWS V14.00,2013-12-29 05:14:00,
2013-12-28 21:20:00,48.7,15.4,29.21,West,262,0.0,0.0,26,0.00,,---,0.00,VWS V14.00,2013-12-29 05:20:00,
2013-12-28 21:25:00,48.6,15.2,29.21,West,262,0.0,0.0,26,0.00,,---,0.00,VWS V14.00,2013-12-29 05:25:00,
2013-12-28 21:31:00,48.6,15.2,29.21,West,262,0.0,0.0,26,0.00,,---,0.00,VWS V14.00,2013-12-29 05:31:00,
2013-12-28 21:36:00,48.6,13.4,29.21,West,261,0.0,0.0,24,0.00,,---,0.00,VWS V14.00,2013-12-29 05:36:00,
2013-12-28 21:42:00,48.4,13.3,29.21,West,262,0.0,0.0,24,0.00,,---,0.00,VWS V14.00,2013-12-29 05:42:00,
2013-12-28 21:48:00,48.2,13.1,29.21,West,262,0.0,0.0,24,0.00,,---,0.00,VWS V14.00,2013-12-29 05:48:00,
2013-12-28 21:53:00,48.2,13.1,29.21,West,262,0.0,0.0,24,0.00,,---,0.00,VWS V14.00,2013-12-29 05:53:00,
2013-12-28 21:59:00,48.2,13.1,29.21,West,262,0.0,0.0,24,0.00,,---,0.00,VWS V14.00,2013-12-29 05:59:00,
2013-12-28 22:04:00,48.4,13.3,29.21,West,262,0.0,0.0,24,0.00,,---,0.00,VWS V14.00,2013-12-29 06:04:00,
2013-12-28 22:09:00,48.4,13.3,29.21,West,263,0.0,0.0,24,0.00,,---,0.00,VWS V14.00,2013-12-29 06:09:00,
2013-12-28 22:14:00,48.7,10.6,29.21,West,263,0.0,0.0,21,0.00,,---,0.00,VWS V14.00,2013-12-29 06:14:00,
2013-12-28 22:19:00,49.5,8.9,29.21,West,273,0.0,0.0,19,0.00,,---,0.00,VWS V14.00,2013-12-29 06:19:00,
2013-12-28 22:24:00,50.2,9.5,29.21,West,273,0.0,0.0,19,0.00,,---,0.00,VWS V14.00,2013-12-29 06:24:00,
2013-12-28 22:30:00,50.4,5.9,29.21,West,273,0.0,0.0,16,0.00,,---,0.00,VWS V14.00,2013-12-29 06:30:00,
2013-12-28 22:36:00,50.7,6.2,29.21,West,273,0.0,0.0,16,0.00,,---,0.00,VWS V14.00,2013-12-29 06:36:00,
2013-12-28 22:41:00,50.9,6.3,29.21,West,272,0.0,0.0,16,0.00,,---,0.00,VWS V14.00,2013-12-29 06:41:00,
2013-12-28 22:47:00,51.8,2.5,29.21,West,270,0.0,0.0,13,0.00,,---,0.00,VWS V14.00,2013-12-29 06:47:00,
2013-12-28 22:53:00,52.5,3.1,29.21,West,280,0.0,0.0,13,0.00,,---,0.00,VWS V14.00,2013-12-29 06:53:00,
2013-12-28 22:58:00,53.2,0.1,29.21,West,272,0.0,0.0,11,0.00,,---,0.00,VWS V14.00,2013-12-29 06:58:00,
2013-12-28 23:04:00,54.0,-1.4,29.21,WNW,284,0.0,0.0,10,0.00,,---,0.00,VWS V14.00,2013-12-29 07:04:00,
2013-12-28 23:09:00,54.5,-0.9,29.21,WNW,283,0.0,0.0,10,0.00,,---,0.00,VWS V14.00,2013-12-29 07:09:00,
2013-12-28 23:15:00,54.7,-0.8,29.21,WNW,285,0.0,0.0,10,0.00,,---,0.00,VWS V14.00,2013-12-29 07:15:00,
2013-12-28 23:20:00,54.7,-5.5,29.21,West,270,0.0,0.0,8,0.00,,---,0.00,VWS V14.00,2013-12-29 07:20:00,
2013-12-28 23:26:00,55.0,-5.2,29.21,West,276,0.0,0.0,8,0.00,,---,0.00,VWS V14.00,2013-12-29 07:26:00,
2013-12-28 23:31:00,55.6,-7.6,29.21,WNW,288,0.0,0.0,7,0.00,,---,0.00,VWS V14.00,2013-12-29 07:31:00,
2013-12-28 23:36:00,56.1,-7.2,29.21,West,267,0.0,0.0,7,0.00,,---,0.00,VWS V14.00,2013-12-29 07:36:00,
2013-12-28 23:42:00,56.7,-6.8,29.21,West,276,0.0,0.0,7,0.00,,---,0.00,VWS V14.00,2013-12-29 07:42:00,
2013-12-28 23:47:00,56.7,-6.8,29.21,West,266,0.0,0.0,7,0.00,,---,0.00,VWS V14.00,2013-12-29 07:47:00,
2013-12-28 23:53:00,56.3,-7.0,29.21,WNW,282,0.0,0.0,7,0.00,,---,0.00,VWS V14.00,2013-12-29 07:53:00,
2013-12-28 23:58:00,56.3,-7.0,29.21,WNW,284,0.0,0.0,7,0.00,,---,0.00,VWS V14.00,2013-12-29 07:58:00,